[Iaude] MPEC K62: 2020 KZ [a=2.13,e=0.49,i=3.8,H=25.0]

mpec at marsden.cfa.harvard.edu mpec at marsden.cfa.harvard.edu
Mon May 18 21:12:15 EDT 2020


M.P.E.C. 2020-K62                                  Issued 2020 May 19, 01:10 UT

     The Minor Planet Electronic Circulars contain information on unusual
         minor planets and routine data on comets.  They are published
    on behalf of Division F of the International Astronomical Union by the
          Minor Planet Center, Smithsonian Astrophysical Observatory,
                          Cambridge, MA 02138, U.S.A.

             Prepared using the Tamkin Foundation Computer Network

                              MPC at CFA.HARVARD.EDU
            URL https://www.minorplanetcenter.net/    ISSN 1523-6714

                                    2020 KZ                                     


Observations:
     K20K00Z* C2020 05 17.48944315 44 24.088+14 17 35.13         21.57wUEK062F51
     K20K00Z  C2020 05 17.51465515 44 33.873+14 15 50.76         21.68wUEK062F51
     K20K00Z  C2020 05 17.52711015 44 38.761+14 14 58.30         21.44wUEK062F51
     K20K00Z  C2020 05 17.93486 15 47 35.57 +13 46 11.8          21.5 VVEK062033
     K20K00Z  C2020 05 17.93690 15 47 36.37 +13 46 03.4          21.5 VVEK062033
     K20K00Z  C2020 05 17.93894 15 47 37.18 +13 45 55.3          21.6 VVEK062033
     K20K00Z KC2020 05 18.07402 15 48 31.42 +13 36 42.2          20.5 VqEK062I93
     K20K00Z KC2020 05 18.07985 15 48 33.74 +13 36 17.4          20.4 VqEK062I93
     K20K00Z KC2020 05 18.11121 15 48 46.12 +13 34 04.3          20.9 VqEK062I93
     K20K00Z  C2020 05 18.91958 15 54 29.51 +12 37 09.9          21.2 VVEK062033
     K20K00Z  C2020 05 18.92178 15 54 30.39 +12 37 00.5          21.4 VVEK062033
     K20K00Z  C2020 05 18.92397 15 54 31.28 +12 36 50.9          21.4 VVEK062033

Observer details:
033 Karl Schwarzschild Observatory, Tautenburg.  Observers S. Melnikov, C. 
   Hoegner, B. Stecklum.  Measurer B. Stecklum.  1.34-m f/3 Schmidt + CCD.
F51 Pan-STARRS 1, Haleakala.  Observers J. Bulger, T. Lowe, A. Schultz, M. 
   Willman.  Measurers K. Chambers, S. Chastel, T. de Boer, L. Denneau, J. 
   Fairlamb, H. Flewelling, M. Huber, C.-C. Lin, E. Magnier, Y. Ramanjooloo, R. 
   Wainscoat, R. Weryk.  1.8-m Ritchey-Chretien + CCD.
I93 St Pardon de Conques.  Observer F. Losse.  0.40-m f/3.7 reflector + CCD.

Orbital elements:
2020 KZ                                                  Earth MOID = 0.0918 AU
Epoch 2020 May 18.0 TT = JDT 2458987.5                  Pike                    
M   2.40757              (2000.0)            P               Q                  
n   0.31605273     Peri.  128.08890     -0.65885885     +0.74944844             
a   2.1345009      Node   100.56889     -0.70925295     -0.59003618             
e   0.4911424      Incl.    3.79443     -0.25072947     -0.30030708             
P   3.12           H   25.01          G   0.15           U   9                  
Residuals in seconds of arc
200517 F51  0.1+  0.1-    200517 033  0.2-  0.8-    200518 I93  0.5-  0.2-
200517 F51  0.2-  0.3+    200517 033  0.2-  0.4-    200518 033  0.5-  0.1-
200517 F51  0.1+  0.2-    200518 I93  0.4+  0.7+    200518 033  0.2-  0.2-
200517 033  0.0-  0.8-    200518 I93  0.6+  0.4+    200518 033  0.2+  0.5-
Ephemeris:
2020 KZ                  a,e,i = 2.13, 0.49, 4                   q = 1.0862
Date    TT    R. A. (2000) Decl.     Delta      r    Elong.  Phase     V
2020 04 19    13 00 24.6 +27 16 43   0.1383  1.1137   139.8    35.6    22.4
...
2020 05 04    14 11 22.0 +25 12 17   0.1050  1.0887   138.0    38.3    21.8
...
2020 05 12    15 05 11.1 +19 53 50   0.09471 1.0863   141.9    35.0    21.5
...
2020 05 18    15 48 01.8 +13 42 43   0.09213 1.0897   146.7    30.7    21.3
2020 05 19    15 55 01.4 +12 32 30   0.09220 1.0907   147.6    29.8    21.3
2020 05 20    16 01 55.3 +11 20 40   0.09241 1.0918   148.5    29.0    21.3
...
2020 05 26    16 40 28.8 +03 54 42   0.09688 1.1010   154.0    23.8    21.3
...
2020 06 03    17 21 59.0 -05 17 19   0.1109  1.1196   160.7    17.4    21.4
...
2020 06 18    18 09 46.3 -17 06 55   0.1574  1.1721   171.7     7.2    21.9

M. P. C. Staff               (C) Copyright 2020 MPC           M.P.E.C. 2020-K62




More information about the Iaude mailing list